Devils Lake, ND

3:05 PM CDT on September 25, 2017 (GMT -0500)
Devils Lake Municipal

Weather History for KDVL - March, 2014

Change the Weather History Date:

Tuesday, March 18, 2014

  Actual Average Record
Temperature  
Mean Temperature 28 °F -  
Max Temperature 32 °F 35 °F 69 °F (2012)
Min Temperature 24 °F 19 °F -8 °F (1965)
Degree Days  
Heating Degree Days 37    
Moisture  
Dew Point 22 °F    
Average Humidity 77    
Maximum Humidity 86    
Minimum Humidity 69    
Precipitation  
Precipitation 0.00 in - - ()
Sea Level Pressure  
Sea Level Pressure 29.84 in    
Wind  
Wind Speed 8 mph (NNE)    
Max Wind Speed 15 mph    
Max Gust Speed 16 mph    
Visibility 9 miles    
Events      
Averages and records for this station are not official NWS values.
T = Trace of Precipitation, MM = Missing Value Source: NWS Daily Summary

Daily Weather History Graph

Daily Weather History Graph

Search for Another Location

Airport or City:

Trip Planner

Search our weather history database for the weather conditions in past years. The results will help you decide how hot, cold, wet, or windy it might be!

Date:

Astronomy

Mar. 18, 2014 Rise Set
Actual Time 7:42 AM CDT 7:45 PM CDT
Civil Twilight 7:11 AM CDT 8:16 PM CDT
Nautical Twilight 6:35 AM CDT 8:53 PM CDT
Astronomical Twilight 5:57 AM CDT 9:30 PM CDT
Moon 10:17 PM CDT (3/18) 8:22 AM CDT (3/18)
Length of Visible Light 13h 05m
Length of Day
12h 03m
Waning Gibbous, 96% of the Moon is Illuminated
Mar 18
Waning Gibbous
Mar 23
Last Quarter
Mar 30
New
Apr 7
First Quarter
Apr 15
Full

Hourly Weather History & Observations

Time (CDT) Temp. Windchill Dew Point Humidity Pressure Visibility Wind Dir Wind Speed Gust Speed Precip Events Conditions
12:15 AM 28.4 °F 19.7 °F 21.2 °F 74% 29.68 in 10.0 mi NNE 9.2 mph - N/A   Overcast
12:35 AM 28.4 °F 19.1 °F 21.2 °F 74% 29.69 in 10.0 mi NE 10.4 mph - N/A   Overcast
12:55 AM 28.4 °F 21.2 °F 21.2 °F 74% 29.70 in 10.0 mi NNE 6.9 mph - N/A   Overcast
1:15 AM 28.4 °F 18.5 °F 21.2 °F 74% 29.70 in 10.0 mi NNE 11.5 mph - N/A   Overcast
1:35 AM 26.6 °F 18.2 °F 21.2 °F 80% 29.71 in 10.0 mi NNE 8.1 mph - N/A   Overcast
1:55 AM 26.6 °F 16.8 °F 21.2 °F 80% 29.72 in 10.0 mi NE 10.4 mph - N/A   Overcast
2:15 AM 26.6 °F 18.2 °F 19.4 °F 74% 29.73 in 10.0 mi NNE 8.1 mph - N/A   Overcast
2:35 AM 26.6 °F 17.5 °F 19.4 °F 74% 29.73 in 10.0 mi NNE 9.2 mph - N/A   Overcast
2:55 AM 26.6 °F 18.2 °F 19.4 °F 74% 29.74 in 10.0 mi NNE 8.1 mph - N/A   Overcast
3:15 AM 24.8 °F 12.4 °F 19.4 °F 80% 29.75 in 10.0 mi North 15.0 mph - N/A   Overcast
3:35 AM 24.8 °F 14.6 °F 19.4 °F 80% 29.76 in 10.0 mi North 10.4 mph - N/A   Overcast
3:55 AM 26.6 °F 16.2 °F 19.4 °F 74% 29.76 in 10.0 mi North 11.5 mph - N/A   Overcast
4:15 AM 24.8 °F 15.3 °F 19.4 °F 80% 29.76 in 10.0 mi North 9.2 mph - N/A   Overcast
4:35 AM 24.8 °F 14.6 °F 19.4 °F 80% 29.76 in 10.0 mi North 10.4 mph - N/A   Overcast
4:55 AM 26.6 °F 15.7 °F 19.4 °F 74% 29.76 in 10.0 mi North 12.7 mph - N/A   Overcast
5:15 AM 24.8 °F 14.0 °F 19.4 °F 80% 29.76 in 10.0 mi North 11.5 mph - N/A   Overcast
5:35 AM 24.8 °F 13.4 °F 17.6 °F 74% 29.77 in 10.0 mi North 12.7 mph - N/A   Overcast
5:55 AM 24.8 °F 12.9 °F 17.6 °F 74% 29.78 in 10.0 mi North 13.8 mph - N/A   Overcast
6:15 AM 24.8 °F 12.9 °F 17.6 °F 74% 29.78 in 10.0 mi North 13.8 mph - N/A   Overcast
6:35 AM 24.8 °F 14.6 °F 17.6 °F 74% 29.78 in 10.0 mi NNE 10.4 mph - N/A   Overcast
6:55 AM 24.8 °F 14.6 °F 17.6 °F 74% 29.78 in 10.0 mi NNE 10.4 mph - N/A   Overcast
7:15 AM 24.8 °F 14.0 °F 17.6 °F 74% 29.79 in 8.0 mi North 11.5 mph - N/A   Overcast
7:35 AM 24.8 °F 15.3 °F 17.6 °F 74% 29.79 in 7.0 mi NNE 9.2 mph - N/A   Overcast
7:55 AM 24.8 °F 15.3 °F 17.6 °F 74% 29.81 in 4.0 mi NNE 9.2 mph - N/A   Overcast
8:15 AM 24.8 °F 16.9 °F 17.6 °F 74% 29.82 in 4.0 mi NNE 6.9 mph - N/A   Overcast
8:35 AM 24.8 °F 16.1 °F 19.4 °F 80% 29.82 in 5.0 mi NE 8.1 mph - N/A   Overcast
8:55 AM 24.8 °F 16.1 °F 19.4 °F 80% 29.83 in 5.0 mi NE 8.1 mph - N/A   Overcast
9:15 AM 24.8 °F 16.1 °F 19.4 °F 80% 29.84 in 6.0 mi NNE 8.1 mph - N/A   Overcast
9:35 AM 24.8 °F 16.1 °F 19.4 °F 80% 29.84 in 9.0 mi NE 8.1 mph - N/A   Overcast
9:55 AM 24.8 °F 16.1 °F 19.4 °F 80% 29.85 in 10.0 mi NE 8.1 mph - N/A   Overcast
10:15 AM 26.6 °F 16.8 °F 19.4 °F 74% 29.85 in 10.0 mi NNE 10.4 mph - N/A   Overcast
10:35 AM 26.6 °F 15.7 °F 19.4 °F 74% 29.84 in 10.0 mi NNE 12.7 mph 16.1 mph N/A   Overcast
10:55 AM 26.6 °F 19.1 °F 19.4 °F 74% 29.85 in 10.0 mi North 6.9 mph - N/A   Overcast
11:15 AM 26.6 °F 16.8 °F 19.4 °F 74% 29.85 in 10.0 mi NNE 10.4 mph - N/A   Overcast
11:35 AM 26.6 °F 16.8 °F 19.4 °F 74% 29.86 in 10.0 mi NE 10.4 mph - N/A   Overcast
11:55 AM 26.6 °F 19.1 °F 19.4 °F 74% 29.87 in 10.0 mi NNE 6.9 mph - N/A   Overcast
12:15 PM 26.6 °F 20.0 °F 19.4 °F 74% 29.88 in 10.0 mi North 5.8 mph - N/A   Overcast
12:35 PM 26.6 °F 20.0 °F 19.4 °F 74% 29.88 in 10.0 mi North 5.8 mph - N/A   Overcast
12:55 PM 28.4 °F - 19.4 °F 69% 29.89 in 10.0 mi Calm Calm - N/A   Overcast
1:15 PM 28.4 °F 22.2 °F 19.4 °F 69% 29.89 in 10.0 mi NW 5.8 mph - N/A   Overcast
1:35 PM 28.4 °F 20.4 °F 21.2 °F 74% 29.89 in 10.0 mi North 8.1 mph - N/A   Overcast
1:55 PM 28.4 °F 21.2 °F 21.2 °F 74% 29.89 in 10.0 mi North 6.9 mph - N/A   Overcast
2:15 PM 28.4 °F 24.6 °F 21.2 °F 74% 29.88 in 10.0 mi NNW 3.5 mph - N/A   Overcast
2:35 PM 30.2 °F 23.4 °F 21.2 °F 69% 29.88 in 10.0 mi West 6.9 mph - N/A   Overcast
2:55 PM 30.2 °F 23.4 °F 23.0 °F 75% 29.88 in 10.0 mi WNW 6.9 mph - N/A   Overcast
3:15 PM 30.2 °F 24.3 °F 23.0 °F 75% 29.88 in 10.0 mi NW 5.8 mph - N/A   Overcast
3:35 PM 30.2 °F 22.6 °F 24.8 °F 80% 29.88 in 10.0 mi NW 8.1 mph - N/A   Overcast
3:55 PM 32.0 °F 24.8 °F 24.8 °F 75% 29.88 in 10.0 mi NW 8.1 mph - N/A   Overcast
4:15 PM 30.2 °F 22.6 °F 24.8 °F 80% 29.89 in 10.0 mi NNW 8.1 mph - N/A   Overcast
4:35 PM 30.2 °F 23.4 °F 24.8 °F 80% 29.89 in 10.0 mi North 6.9 mph - N/A   Overcast
4:55 PM 30.2 °F 24.3 °F 24.8 °F 80% 29.89 in 10.0 mi North 5.8 mph - N/A   Overcast
5:15 PM 30.2 °F 24.3 °F 24.8 °F 80% 29.89 in 10.0 mi North 5.8 mph - N/A   Overcast
5:35 PM 30.2 °F 25.4 °F 24.8 °F 80% 29.90 in 10.0 mi North 4.6 mph - N/A   Overcast
5:55 PM 30.2 °F 25.4 °F 24.8 °F 80% 29.90 in 10.0 mi North 4.6 mph - N/A   Overcast
6:15 PM 30.2 °F 25.4 °F 24.8 °F 80% 29.90 in 10.0 mi NE 4.6 mph - N/A   Overcast
6:35 PM 30.2 °F 25.4 °F 24.8 °F 80% 29.91 in 10.0 mi NE 4.6 mph - N/A   Overcast
6:55 PM 30.2 °F 26.7 °F 24.8 °F 80% 29.91 in 7.0 mi NE 3.5 mph - N/A   Overcast
7:15 PM 30.2 °F - 24.8 °F 80% 29.91 in 6.0 mi Calm Calm - N/A   Overcast
7:35 PM 30.2 °F 26.7 °F 24.8 °F 80% 29.92 in 6.0 mi East 3.5 mph - N/A   Overcast
7:55 PM 30.2 °F 26.7 °F 24.8 °F 80% 29.93 in 6.0 mi ESE 3.5 mph - N/A   Overcast
8:15 PM 30.2 °F - 24.8 °F 80% 29.93 in 7.0 mi Calm Calm - N/A   Overcast
8:35 PM 30.2 °F - 24.8 °F 80% 29.94 in 10.0 mi Calm Calm - N/A   Overcast
8:55 PM 30.2 °F - 24.8 °F 80% 29.94 in 9.0 mi Calm Calm - N/A   Overcast
9:15 PM 30.2 °F - 26.6 °F 86% 29.94 in 5.0 mi Calm Calm - N/A   Overcast
9:35 PM 30.2 °F 25.4 °F 26.6 °F 86% 29.94 in 7.0 mi North 4.6 mph - N/A   Overcast
9:55 PM 30.2 °F 24.3 °F 26.6 °F 86% 29.94 in 8.0 mi North 5.8 mph - N/A   Overcast
10:15 PM 30.2 °F 23.4 °F 26.6 °F 86% 29.95 in 4.0 mi NNE 6.9 mph - N/A   Overcast
10:35 PM 30.2 °F 22.6 °F 26.6 °F 86% 29.94 in 8.0 mi North 8.1 mph - N/A   Overcast
10:55 PM 30.2 °F 24.3 °F 24.8 °F 80% 29.94 in 10.0 mi North 5.8 mph - N/A   Overcast
11:15 PM 30.2 °F 23.4 °F 24.8 °F 80% 29.94 in 10.0 mi North 6.9 mph - N/A   Overcast
11:35 PM 30.2 °F 23.4 °F 24.8 °F 80% 29.94 in 10.0 mi North 6.9 mph - N/A   Overcast
11:55 PM 30.2 °F 24.3 °F 24.8 °F 80% 29.94 in 10.0 mi NNW 5.8 mph - N/A   Overcast